STARLINK-1218 (45209 NORAD) Tracking and Keplerian Element Data

This shows tracking and keplerian element data for the satellite.

Feedback or suggestion? Click here.




ElementValue
Catalog45209
NameSTARLINK-1218
Epoch Orbit162
Epoch Day93.91667824
Epoch Year2020
RAAN44.4585
Inclination52.9995
Eccentricity0.000135
Argument of Perigee70.148
Mean Anonmoly358.0279
Mean Motion15.62748485
Decay Rate-1.136E-05
L11 45209U 20012AH 20093.91667824 -.00001136 00000-0 -65675-5 0 9999
L22 45209 52.9995 44.4585 0001350 70.1480 358.0279 15.62748485 1623

Live tracking and technical data element details for STARLINK-1218 (NORAD 45209). STARLINK-1218 can be tracked NOW for your location showing map with azimuth and elevation plus other details from your city location.

Track the satellite on the map from your city or location and see movement details for azimuth, elevation, latitude, longitude, range, height, and movement on the map or in text.







IsCatalogInMostPopularTable: catalog: 45209, numindb: 6
Update: records affected: 1



GetName: 45209 STARLINK-1218

Hit Count: updated at: Mon, 06 Apr 2020 12:20:11 GMT